Location: Unspecified
(48.5670°N, 0.0000°E)
Time: 14:00:07
(UTC+00:00)

Transit 4A - Pass Details

Date: 03 September 2019
Orbit: 865 x 979 km, 66.8° (Epoch: 22 September)

Event Time Altitude Azimuth Distance (km) Brightness Sun altitude
Rises 21:36:37 0° 322° (NW) 3,656 12.4 -25.9°
Reaches altitude 10° 21:39:52 10° 337° (NNW) 2,690 11.2 -26.2°
Maximum altitude 21:44:38 22° 27° (NNE) 1,935 9.8 -26.7°
Enters shadow 21:47:41 16° 64° (ENE) 2,252 9.8 -27.0°
